Regional Weather Roundup
Issued by NWS

Home | Current Version | Previous Version | Text Only | Print | Product List | Glossary Off
Versions: 1 2 3 4 5 6 7 8 9 10 11 12 13 14 15 16 17 18 19 20 21 22 23 24 25 26 27 28 29 30 31 32 33 34 35 36 37 38 39 40 41 42 43 44 45 46 47 48 49 50

000
ASUS43 KDMX 230801
RWRIA

WEATHER ROUNDUP FOR IOWA
NATIONAL WEATHER SERVICE DES MOINES IA
300 AM CDT WED AUG 23 2017

NOTE: "FAIR" INDICATES FEW OR NO CLOUDS BELOW 12,000 FEET WITH NO
SIGNIFICANT WEATHER AND/OR OBSTRUCTIONS TO VISIBILITY.

* - THESE STATIONS ARE NOT NWS STATIONS...THUS NOT UNDER NWS
QUALITY CONTROL.  THEY ALSO DO NOT REPORT WEATHER SUCH
AS PRECIPITATION OR FOG.

IAZ001>003-012>014-020>022-031>034-043>046-230900-
   NORTHWEST IOWA

CITY           SKY/WX    TMP DP  RH WIND       PRES   REMARKS
CARROLL *      CLEAR     52  52 100 CALM      30.15S
CHEROKEE *     CLEAR     50  50 100 CALM      30.16S
DENISON *      CLEAR     52  52 100 CALM      30.18S
LE MARS *      CLEAR    106 N/A N/A CALM      30.15S FOG
ORANGE CITY *  CLEAR     57  54  88 CALM      30.16S
SHELDON *      CLEAR     46  46 100 CALM      30.14S
SIOUX CITY     CLEAR     53  53 100 CALM      30.16S
SPENCER        CLEAR     50  48  93 CALM      30.15S
STORM LAKE *   CLEAR     55  52  88 W9        30.16S
$$

IAZ055>058-069>071-079>083-090>094-230900-
   SOUTHWEST IOWA

CITY           SKY/WX    TMP DP  RH WIND       PRES   REMARKS
ATLANTIC *     CLEAR     52  52 100 CALM      30.17S
AUDUBON *      CLEAR     50  46  87 CALM      30.17F
CLARINDA *       N/A     52  52 100 CALM      30.19S
COUNCIL BLFS * CLEAR     59  55  88 E3        30.17S
CRESTON *      CLEAR     57  52  82 NW5       30.18S
HARLAN  *      CLEAR     52  52 100 CALM      30.20S
LAMONI         CLEAR     55  52  89 NW5       30.16R
RED OAK *      CLEAR     54  54 100 CALM      30.18S FOG
SHENANDOAH *   PTCLDY    54  54 100 CALM      30.18S
$$

IAZ047>049-059>061-072>074-084-230900-
   CENTRAL IOWA

CITY           SKY/WX    TMP DP  RH WIND       PRES   REMARKS
AMES           CLEAR     53  52  96 CALM      30.13S
ANKENY *       CLEAR     55  54  94 CALM      30.16R
BOONE *        CLEAR     55  52  88 W3        30.14S
CHARITON *     CLEAR     55  52  88 W6        30.15R
DES MOINES     CLEAR     58  55  90 CALM      30.14R
GRINNELL*      CLEAR     54  51  89 CALM      30.14R
KNOXVILLE *    CLEAR     55  52  88 W7        30.13S
MARSHALLTOWN   CLEAR     52  51  97 W6        30.12S
NEWTON *       CLEAR     54  52  94 W6        30.14R
PELLA *        CLEAR     55  52  90 CALM      30.14S
PERRY *          N/A     52  52  99 W6        30.15F
$$

IAZ004>006-015-016-023>025-035-036-230900-
   NORTH CENTRAL IOWA

CITY           SKY/WX    TMP DP  RH WIND       PRES   REMARKS
ALGONA *       CLEAR     54  52  94 W6        30.14S
CLARION *      CLEAR     48  48 100 S6        30.14R
ESTHERVILLE    CLEAR     51  51 100 W7        30.13S
FORT DODGE *   CLEAR     52  48  87 CALM      30.16R
MASON CITY     CLEAR     51  48  89 W7        30.13S
FOREST CITY *    N/A     50  48  93 CALM      30.13R
WEBSTER CITY * CLEAR     52  50  93 W7        30.12S
IOWA FALLS *     N/A     52  50  93 W5        30.14S
$$

IAZ007>011-017>019-026>030-037>042-050>054-066-230900-
   NORTHEAST IOWA

CITY           SKY/WX    TMP DP  RH WIND       PRES   REMARKS
CEDAR RAPIDS   CLEAR     52  50  93 NW5       30.10R
CHARLES CITY * CLEAR     52  52 100 W7        30.11R
CLINTON *      CLEAR     51  50  96 W7        30.08S
DECORAH *      CLEAR     54  50  87 W3        30.07S
DUBUQUE        CLEAR     50  48  93 W6        30.08S
MONTICELLO *   CLEAR     50  50 100 CALM      30.09R
OELWEIN *      CLEAR     52  52 100 W6        30.11R
WATERLOO       CLEAR     52  50  93 W3        30.10S
$$

IAZ064-065-067-068-078-230900-
   EAST CENTRAL IOWA

CITY           SKY/WX    TMP DP  RH WIND       PRES   REMARKS
DAVENPORT      CLEAR     53  51  93 W6        30.10S
IOWA CITY      CLEAR     56  52  86 CALM      30.11S
MUSCATINE *    CLEAR     55  52  88 NW5       30.10R
QUAD CITIES    CLEAR     57  51  80 SW5       30.08S
$$

IAZ062-063-075>077-085>089-095>099-230900-
   SOUTHEAST IOWA

CITY           SKY/WX    TMP DP  RH WIND       PRES   REMARKS
BURLINGTON     CLEAR     57  54  89 NW6       30.10S
FAIRFIELD *    CLEAR     55  50  82 W7        30.12R
FORT MADISON * CLEAR     55  54  94 W5        30.12R
KEOKUK *       CLEAR     55  54  94 W5        30.11R
OSKALOOSA *      N/A     52  51  96 W6        30.13S
OTTUMWA        CLEAR     55  53  93 W8        30.13R
WASHINGTON *   CLEAR     54  52  94 W6        30.12S
$$

ABBREVIATIONS USED IN REMARKS
   TC - TEMPERATURES IN CELSIUS
  WCI - WIND CHILL INDEX
   HX - HEAT INDEX
  VSB - VISIBILITY
$$





USA.gov is the U.S. government's official web portal to all federal, state and local government web resources and services.